| time (UTC) | temp F | wind direction | speed knots | gust knots | rain 1hr in | rain 24hr in | rain mn in | humidity % | barometer mb |
| 20260903193012 | 89 | 86 | 5.2 | 12.2 | 0.00 | 0.00 | 0.00 | 59 | 1004.9 |
| 20260903192508 | 89 | 94 | 3.5 | 12.2 | 0.00 | 0.00 | 0.00 | 60 | 1004.8 |
| 20260903192005 | 88 | 69 | 6.1 | 12.2 | 0.00 | 0.00 | 0.00 | 61 | 1004.8 |
| 20260903191517 | 88 | 105 | 3.5 | 10.4 | 0.00 | 0.00 | 0.00 | 61 | 1004.9 |
| 20260903191005 | 88 | 158 | 4.3 | 12.2 | 0.00 | 0.00 | 0.00 | 61 | 1005.0 |
| 20260903190505 | 88 | 79 | 5.2 | 12.2 | 0.00 | 0.00 | 0.00 | 61 | 1004.9 |
| 20260903190005 | 88 | 144 | 5.2 | 13.0 | 0.00 | 0.00 | 0.00 | 61 | 1004.9 |
| 20260903185504 | 88 | 86 | 7.0 | 13.0 | 0.00 | 0.00 | 0.00 | 61 | 1005.0 |
| 20260903185002 | 88 | 68 | 6.1 | 12.2 | 0.00 | 0.00 | 0.00 | 62 | 1005.0 |
| 20260903184501 | 87 | 117 | 6.1 | 11.3 | 0.00 | 0.00 | 0.00 | 62 | 1005.1 |
| 20260903184102 | 87 | 116 | 5.2 | 10.4 | 0.00 | 0.00 | 0.00 | 63 | 1005.2 |
| 20260903183559 | 87 | 72 | 4.3 | 13.0 | 0.00 | 0.00 | 0.00 | 63 | 1005.3 |
| 20260903183102 | 87 | 157 | 5.2 | 13.0 | 0.00 | 0.00 | 0.00 | 63 | 1005.4 |
| 20260903182558 | 87 | 125 | 4.3 | 13.0 | 0.00 | 0.00 | 0.00 | 64 | 1005.4 |
| 20260903182058 | 86 | 125 | 4.3 | 12.2 | 0.00 | 0.00 | 0.00 | 65 | 1005.5 |
| 20260903181556 | 86 | 5 | 6.1 | 12.2 | 0.00 | 0.00 | 0.00 | 65 | 1005.8 |
| 20260903181054 | 85 | 94 | 4.3 | 10.4 | 0.00 | 0.00 | 0.00 | 67 | 1005.8 |
| 20260903180556 | 85 | 43 | 5.2 | 14.8 | 0.00 | 0.00 | 0.00 | 67 | 1005.9 |
| 20260903180054 | 84 | 122 | 5.2 | 14.8 | 0.00 | 0.00 | 0.00 | 67 | 1006.1 |
| 20260903175554 | 85 | 54 | 6.1 | 12.2 | 0.00 | 0.00 | 0.00 | 67 | 1006.2 |
| 20260903175053 | 85 | 75 | 5.2 | 13.9 | 0.00 | 0.00 | 0.00 | 67 | 1006.1 |
| 20260903174553 | 85 | 101 | 6.1 | 13.9 | 0.00 | 0.00 | 0.00 | 67 | 1006.1 |
| 20260903174052 | 85 | 144 | 7.8 | 13.0 | 0.00 | 0.00 | 0.00 | 66 | 1006.1 |
| 20260903173552 | 85 | 142 | 5.2 | 12.2 | 0.00 | 0.00 | 0.00 | 66 | 1006.0 |
| 20260903173052 | 85 | 131 | 6.1 | 14.8 | 0.00 | 0.00 | 0.00 | 66 | 1006.0 |
| 20260903172552 | 85 | 109 | 7.8 | 14.8 | 0.00 | 0.00 | 0.00 | 66 | 1006.0 |
| 20260903172050 | 85 | 130 | 7.0 | 14.8 | 0.00 | 0.00 | 0.00 | 66 | 1006.0 |
| 20260903171604 | 84 | 168 | 7.0 | 15.6 | 0.00 | 0.00 | 0.00 | 67 | 1006.1 |
| 20260903171047 | 84 | 155 | 7.0 | 15.6 | 0.00 | 0.00 | 0.00 | 69 | 1006.1 |
| 20260903170546 | 84 | 171 | 6.1 | 11.3 | 0.00 | 0.00 | 0.00 | 69 | 1006.2 |
| 20260903170051 | 83 | 161 | 4.3 | 12.2 | 0.00 | 0.00 | 0.00 | 69 | 1006.4 |
| 20260903165544 | 83 | 161 | 4.3 | 12.2 | 0.00 | 0.00 | 0.00 | 70 | 1006.5 |
| 20260903165044 | 82 | 52 | 3.5 | 11.3 | 0.00 | 0.00 | 0.00 | 71 | 1006.5 |
| 20260903164541 | 82 | 116 | 5.2 | 11.3 | 0.00 | 0.00 | 0.00 | 71 | 1006.5 |
| 20260903164041 | 81 | 47 | 6.1 | 13.0 | 0.00 | 0.00 | 0.00 | 71 | 1006.6 |
| 20260903163540 | 81 | 123 | 6.1 | 15.6 | 0.00 | 0.00 | 0.00 | 72 | 1006.7 |
| 20260903163043 | 82 | 90 | 7.0 | 15.6 | 0.00 | 0.00 | 0.00 | 71 | 1006.7 |
| 20260903162539 | 82 | 98 | 7.8 | 14.8 | 0.00 | 0.00 | 0.00 | 71 | 1006.6 |
| 20260903162038 | 81 | 123 | 6.1 | 13.0 | 0.00 | 0.00 | 0.00 | 72 | 1006.5 |
| 20260903161537 | 80 | 110 | 7.0 | 12.2 | 0.00 | 0.00 | 0.00 | 74 | 1006.4 |
| 20260903161034 | 79 | 58 | 7.0 | 10.4 | 0.00 | 0.00 | 0.00 | 75 | 1006.7 |
| 20260903160534 | 79 | 112 | 4.3 | 9.6 | 0.00 | 0.00 | 0.00 | 74 | 1007.1 |
| 20260903160033 | 79 | 108 | 4.3 | 8.7 | 0.00 | 0.00 | 0.00 | 74 | 1007.1 |
| 20260903155536 | 79 | 142 | 2.6 | 7.8 | 0.00 | 0.00 | 0.00 | 73 | 1007.5 |
| 20260903155038 | 80 | 131 | 3.5 | 9.6 | 0.00 | 0.00 | 0.00 | 72 | 1007.6 |
| 20260903154533 | 80 | 96 | 4.3 | 9.6 | 0.00 | 0.00 | 0.00 | 72 | 1007.5 |
| 20260903154033 | 80 | 83 | 5.2 | 9.6 | 0.00 | 0.00 | 0.00 | 72 | 1007.6 |
| 20260903153529 | 79 | 92 | 3.5 | 11.3 | 0.00 | 0.00 | 0.00 | 73 | 1007.3 |
| 20260903153029 | 79 | 84 | 5.2 | 12.2 | 0.00 | 0.00 | 0.00 | 72 | 1007.2 |
| 20260903152527 | 79 | 97 | 7.0 | 12.2 | 0.00 | 0.00 | 0.00 | 73 | 1007.2 |
| 20260903152026 | 78 | 134 | 4.3 | 10.4 | 0.00 | 0.00 | 0.00 | 73 | 1007.3 |
| 20260903151525 | 77 | 83 | 5.2 | 12.2 | 0.00 | 0.00 | 0.00 | 73 | 1007.5 |
| 20260903151023 | 77 | 131 | 5.2 | 12.2 | 0.00 | 0.00 | 0.00 | 74 | 1007.4 |
| 20260903150522 | 76 | 91 | 6.1 | 12.2 | 0.00 | 0.00 | 0.00 | 75 | 1007.2 |
| 20260903150034 | 76 | 101 | 7.0 | 12.2 | 0.00 | 0.00 | 0.00 | 74 | 1007.3 |
| 20260903145520 | 76 | 103 | 4.3 | 10.4 | 0.00 | 0.00 | 0.00 | 74 | 1007.3 |
| 20260903145018 | 76 | 143 | 4.3 | 10.4 | 0.00 | 0.00 | 0.00 | 74 | 1007.5 |
| 20260903144517 | 76 | 114 | 3.5 | 10.4 | 0.00 | 0.00 | 0.00 | 74 | 1007.6 |
| 20260903144017 | 75 | 95 | 4.3 | 11.3 | 0.00 | 0.00 | 0.00 | 75 | 1007.7 |
| 20260903143514 | 75 | 101 | 5.2 | 11.3 | 0.00 | 0.00 | 0.00 | 75 | 1007.8 |
| 20260903143013 | 74 | 76 | 4.3 | 11.3 | 0.00 | 0.00 | 0.00 | 75 | 1007.8 |
| 20260903142512 | 74 | 69 | 4.3 | 12.2 | 0.00 | 0.00 | 0.00 | 75 | 1008.0 |
| 20260903142010 | 74 | 66 | 7.0 | 12.2 | 0.00 | 0.00 | 0.00 | 75 | 1007.9 |
| 20260903141511 | 74 | 19 | 5.2 | 11.3 | 0.00 | 0.00 | 0.00 | 75 | 1007.9 |
| 20260903141010 | 73 | 47 | 7.0 | 11.3 | 0.00 | 0.00 | 0.00 | 76 | 1008.0 |
| 20260903140507 | 73 | 68 | 4.3 | 11.3 | 0.00 | 0.00 | 0.00 | 76 | 1008.1 |
| 20260903140004 | 73 | 82 | 4.3 | 10.4 | 0.00 | 0.00 | 0.00 | 76 | 1008.1 |
| 20260903135507 | 73 | 108 | 6.1 | 10.4 | 0.00 | 0.00 | 0.00 | 76 | 1008.2 |
| 20260903135003 | 72 | 64 | 5.2 | 10.4 | 0.00 | 0.00 | 0.00 | 76 | 1008.2 |
| 20260903134502 | 72 | 100 | 6.1 | 10.4 | 0.00 | 0.00 | 0.00 | 76 | 1008.3 |
| 20260903134004 | 72 | 105 | 4.3 | 9.6 | 0.00 | 0.00 | 0.00 | 77 | 1008.5 |
| 20260903133604 | 72 | 72 | 3.5 | 8.7 | 0.00 | 0.00 | 0.00 | 77 | 1008.6 |
| 20260903133103 | 71 | 97 | 5.2 | 8.7 | 0.00 | 0.00 | 0.00 | 77 | 1008.6 |
| 20260903132558 | 71 | 65 | 3.5 | 7.8 | 0.00 | 0.00 | 0.00 | 77 | 1008.6 |
| 20260903132058 | 71 | 64 | 3.5 | 7.0 | 0.00 | 0.00 | 0.00 | 78 | 1008.5 |
| 20260903131607 | 71 | 100 | 2.6 | 7.8 | 0.00 | 0.00 | 0.00 | 78 | 1008.5 |
| 20260903131059 | 70 | 84 | 3.5 | 7.8 | 0.00 | 0.00 | 0.00 | 78 | 1008.4 |
| 20260903130555 | 70 | 86 | 4.3 | 8.7 | 0.00 | 0.00 | 0.00 | 78 | 1008.6 |
| 20260903130056 | 70 | 78 | 4.3 | 8.7 | 0.00 | 0.00 | 0.00 | 78 | 1008.6 |
| 20260903125555 | 70 | 80 | 4.3 | 6.1 | 0.00 | 0.00 | 0.00 | 77 | 1008.6 |
| 20260903125055 | 70 | 67 | 1.7 | 6.1 | 0.00 | 0.00 | 0.00 | 77 | 1008.6 |
| 20260903124606 | 70 | 32 | 2.6 | 8.7 | 0.00 | 0.00 | 0.00 | 78 | 1008.6 |
| 20260903124053 | 70 | 92 | 3.5 | 9.6 | 0.00 | 0.00 | 0.00 | 78 | 1008.5 |
| 20260903123551 | 69 | 96 | 4.3 | 9.6 | 0.00 | 0.00 | 0.00 | 78 | 1008.4 |
| 20260903123050 | 69 | 165 | 5.2 | 8.7 | 0.00 | 0.00 | 0.00 | 79 | 1008.3 |
| 20260903122549 | 69 | 63 | 3.5 | 8.7 | 0.00 | 0.00 | 0.00 | 79 | 1008.4 |
| 20260903122048 | 69 | 116 | 3.5 | 7.8 | 0.00 | 0.00 | 0.00 | 79 | 1008.5 |
| 20260903121547 | 69 | 73 | 3.5 | 8.7 | 0.00 | 0.00 | 0.00 | 79 | 1008.3 |
| 20260903121046 | 68 | 26 | 3.5 | 8.7 | 0.00 | 0.00 | 0.00 | 79 | 1008.5 |
| 20260903120545 | 68 | 75 | 3.5 | 7.8 | 0.00 | 0.00 | 0.00 | 79 | 1008.5 |
| 20260903120055 | 68 | 86 | 4.3 | 7.8 | 0.00 | 0.00 | 0.00 | 78 | 1008.4 |
| 20260903115543 | 69 | 98 | 4.3 | 7.8 | 0.00 | 0.00 | 0.00 | 78 | 1008.4 |
| 20260903115043 | 69 | 95 | 3.5 | 7.0 | 0.00 | 0.00 | 0.00 | 78 | 1008.6 |
| 20260903114543 | 69 | 96 | 1.7 | 7.0 | 0.00 | 0.00 | 0.00 | 78 | 1008.6 |
| 20260903114042 | 69 | 92 | 3.5 | 7.0 | 0.00 | 0.00 | 0.00 | 78 | 1008.7 |
| 20260903113545 | 69 | 102 | 3.5 | 7.0 | 0.00 | 0.00 | 0.00 | 77 | 1008.7 |
| 20260903113047 | 69 | 98 | 3.5 | 7.8 | 0.00 | 0.00 | 0.00 | 77 | 1008.8 |
| 20260903112543 | 69 | 126 | 2.6 | 7.0 | 0.00 | 0.00 | 0.00 | 77 | 1008.8 |
| 20260903112041 | 69 | 92 | 2.6 | 7.0 | 0.00 | 0.00 | 0.00 | 77 | 1008.8 |
| 20260903111540 | 69 | 111 | 4.3 | 7.0 | 0.00 | 0.00 | 0.00 | 77 | 1008.9 |
| 20260903111039 | 69 | 56 | 2.6 | 6.1 | 0.00 | 0.00 | 0.00 | 77 | 1009.0 |
| 20260903110538 | 69 | 97 | 2.6 | 6.1 | 0.00 | 0.00 | 0.00 | 77 | 1009.2 |
| 20260903110038 | 69 | 98 | 2.6 | 6.1 | 0.00 | 0.00 | 0.00 | 77 | 1009.2 |
| 20260903105541 | 68 | 96 | 2.6 | 5.2 | 0.00 | 0.00 | 0.00 | 77 | 1009.2 |
| 20260903105039 | 68 | 94 | 1.7 | 4.3 | 0.00 | 0.00 | 0.00 | 77 | 1009.1 |
| 20260903104539 | 68 | 79 | 1.7 | 5.2 | 0.00 | 0.00 | 0.00 | 77 | 1009.1 |
| 20260903104037 | 68 | 50 | 1.7 | 5.2 | 0.00 | 0.00 | 0.00 | 77 | 1009.0 |
| 20260903103537 | 68 | 74 | 2.6 | 5.2 | 0.00 | 0.00 | 0.00 | 78 | 1009.1 |
| 20260903103036 | 68 | 78 | 1.7 | 5.2 | 0.00 | 0.00 | 0.00 | 78 | 1009.2 |
| 20260903102536 | 68 | 63 | 2.6 | 5.2 | 0.00 | 0.00 | 0.00 | 78 | 1009.2 |
| 20260903102035 | 68 | 51 | 2.6 | 5.2 | 0.00 | 0.00 | 0.00 | 78 | 1009.3 |
| 20260903101544 | 67 | 92 | 1.7 | 5.2 | 0.00 | 0.00 | 0.00 | 78 | 1009.4 |
| 20260903101035 | 67 | 79 | 0.9 | 3.5 | 0.00 | 0.00 | 0.00 | 78 | 1009.4 |
| 20260903100535 | 67 | 81 | 1.7 | 4.3 | 0.00 | 0.00 | 0.00 | 78 | 1009.3 |
| 20260903100036 | 67 | 71 | 1.7 | 4.3 | 0.00 | 0.00 | 0.00 | 78 | 1009.2 |
| 20260903095534 | 67 | 82 | 1.7 | 3.5 | 0.00 | 0.00 | 0.00 | 78 | 1009.3 |
| 20260903095033 | 67 | 68 | 1.7 | 4.3 | 0.00 | 0.00 | 0.00 | 78 | 1009.3 |
| 20260903094533 | 67 | 60 | 1.7 | 4.3 | 0.00 | 0.00 | 0.00 | 78 | 1009.4 |
| 20260903094034 | 67 | 66 | 1.7 | 3.5 | 0.00 | 0.00 | 0.00 | 78 | 1009.5 |
| 20260903093532 | 67 | 57 | 0.9 | 3.5 | 0.00 | 0.00 | 0.00 | 78 | 1009.6 |
| 20260903093040 | 67 | 56 | 0.9 | 3.5 | 0.00 | 0.00 | 0.00 | 78 | 1009.7 |
| 20260903092531 | 67 | 58 | 0.9 | 3.5 | 0.00 | 0.00 | 0.00 | 78 | 1009.7 |
| 20260903092031 | 67 | 59 | 1.7 | 4.3 | 0.00 | 0.00 | 0.00 | 78 | 1009.7 |
| 20260903091530 | 67 | 53 | 0.9 | 2.6 | 0.00 | 0.00 | 0.00 | 78 | 1009.7 |
| 20260903091036 | 67 | 51 | 0.0 | 2.6 | 0.00 | 0.00 | 0.00 | 79 | 1009.7 |
| 20260903090531 | 67 | 51 | 0.9 | 2.6 | 0.00 | 0.00 | 0.00 | 78 | 1009.7 |
| 20260903090033 | 66 | 42 | 0.0 | 3.5 | 0.00 | 0.00 | 0.00 | 79 | 1009.8 |
| 20260903085529 | 66 | 63 | 1.7 | 3.5 | 0.00 | 0.00 | 0.00 | 79 | 1009.7 |
| 20260903085029 | 66 | 76 | 1.7 | 3.5 | 0.00 | 0.00 | 0.00 | 79 | 1009.7 |
| 20260903084533 | 67 | 107 | 1.7 | 3.5 | 0.00 | 0.00 | 0.00 | 79 | 1009.7 |
| 20260903084028 | 67 | 65 | 1.7 | 3.5 | 0.00 | 0.00 | 0.00 | 79 | 1009.8 |
| 20260903083528 | 67 | 80 | 1.7 | 3.5 | 0.00 | 0.00 | 0.00 | 79 | 1010.0 |
| 20260903083028 | 67 | 80 | 1.7 | 3.5 | 0.00 | 0.00 | 0.00 | 79 | 1009.9 |
| 20260903082526 | 67 | 69 | 1.7 | 3.5 | 0.00 | 0.00 | 0.00 | 79 | 1010.0 |
| 20260903082026 | 67 | 64 | 1.7 | 4.3 | 0.00 | 0.00 | 0.00 | 79 | 1010.1 |
| 20260903081526 | 67 | 55 | 1.7 | 4.3 | 0.00 | 0.00 | 0.00 | 79 | 1010.0 |
| 20260903081024 | 67 | 71 | 1.7 | 5.2 | 0.00 | 0.00 | 0.00 | 79 | 1010.1 |
| 20260903080524 | 66 | 96 | 2.6 | 3.5 | 0.00 | 0.00 | 0.00 | 80 | 1010.2 |
| 20260903080037 | 67 | 71 | 0.9 | 2.6 | 0.00 | 0.00 | 0.00 | 79 | 1010.3 |
| 20260903075522 | 67 | 64 | 0.9 | 2.6 | 0.00 | 0.00 | 0.00 | 79 | 1010.4 |
| 20260903075022 | 67 | 63 | 0.9 | 2.6 | 0.00 | 0.00 | 0.00 | 79 | 1010.5 |
| 20260903074521 | 67 | 64 | 0.9 | 3.5 | 0.00 | 0.00 | 0.00 | 79 | 1010.5 |
| 20260903074021 | 67 | 63 | 0.9 | 5.2 | 0.00 | 0.00 | 0.00 | 79 | 1010.5 |
| 20260903073520 | 67 | 103 | 1.7 | 5.2 | 0.00 | 0.00 | 0.00 | 79 | 1010.5 |
| 20260903073024 | 67 | 63 | 1.7 | 3.5 | 0.00 | 0.00 | 0.00 | 79 | 1010.5 |
| 20260903072520 | 67 | 57 | 1.7 | 5.2 | 0.00 | 0.00 | 0.00 | 79 | 1010.4 |
| 20260903072021 | 67 | 95 | 1.7 | 3.5 | 0.00 | 0.00 | 0.00 | 79 | 1010.4 |
| 20260903071520 | 67 | 86 | 1.7 | 4.3 | 0.00 | 0.00 | 0.00 | 79 | 1010.3 |
| 20260903071023 | 67 | 72 | 1.7 | 4.3 | 0.00 | 0.00 | 0.00 | 79 | 1010.5 |
| 20260903070517 | 67 | 81 | 1.7 | 3.5 | 0.00 | 0.00 | 0.00 | 79 | 1010.5 |
| 20260903070019 | 67 | 63 | 0.9 | 3.5 | 0.00 | 0.00 | 0.00 | 79 | 1010.6 |
| 20260903065517 | 67 | 60 | 1.7 | 3.5 | 0.00 | 0.00 | 0.00 | 79 | 1010.7 |
| 20260903065017 | 67 | 96 | 1.7 | 4.3 | 0.00 | 0.00 | 0.00 | 79 | 1010.6 |
| 20260903064517 | 67 | 68 | 2.6 | 4.3 | 0.00 | 0.00 | 0.00 | 79 | 1010.7 |
| 20260903064016 | 67 | 92 | 1.7 | 3.5 | 0.00 | 0.00 | 0.00 | 79 | 1010.7 |
| 20260903063515 | 67 | 77 | 0.9 | 3.5 | 0.00 | 0.00 | 0.00 | 79 | 1010.9 |
| 20260903063015 | 67 | 81 | 1.7 | 3.5 | 0.00 | 0.00 | 0.00 | 79 | 1011.0 |
| 20260903062515 | 67 | 84 | 0.9 | 3.5 | 0.00 | 0.00 | 0.00 | 79 | 1011.1 |
| 20260903062015 | 67 | 86 | 0.9 | 3.5 | 0.00 | 0.00 | 0.00 | 79 | 1011.1 |
| 20260903061516 | 67 | 87 | 1.7 | 3.5 | 0.00 | 0.00 | 0.00 | 79 | 1011.1 |
| 20260903061116 | 67 | 87 | 1.7 | 3.5 | 0.00 | 0.00 | 0.00 | 79 | 1011.2 |
| 20260903060513 | 67 | 72 | 0.9 | 5.2 | 0.00 | 0.00 | 0.00 | 79 | 1011.1 |
| 20260903060012 | 67 | 77 | 0.9 | 5.2 | 0.00 | 0.00 | 0.00 | 78 | 1011.1 |
| 20260903055512 | 67 | 91 | 1.7 | 5.2 | 0.00 | 0.00 | 0.00 | 78 | 1011.0 |
| 20260903055010 | 68 | 58 | 1.7 | 4.3 | 0.00 | 0.00 | 0.00 | 78 | 1011.0 |
| 20260903054512 | 68 | 68 | 2.6 | 5.2 | 0.00 | 0.00 | 0.00 | 77 | 1011.0 |
| 20260903054009 | 68 | 83 | 1.7 | 5.2 | 0.00 | 0.00 | 0.00 | 77 | 1010.9 |
| 20260903053509 | 68 | 88 | 1.7 | 5.2 | 0.00 | 0.00 | 0.00 | 76 | 1010.9 |
| 20260903053007 | 68 | 81 | 2.6 | 5.2 | 0.00 | 0.00 | 0.00 | 76 | 1011.0 |
| 20260903052506 | 68 | 71 | 1.7 | 4.3 | 0.00 | 0.00 | 0.00 | 75 | 1011.1 |
| 20260903052007 | 69 | 78 | 2.6 | 4.3 | 0.00 | 0.00 | 0.00 | 74 | 1011.2 |
| 20260903051507 | 69 | 74 | 1.7 | 4.3 | 0.00 | 0.00 | 0.00 | 74 | 1011.3 |
| 20260903051004 | 69 | 52 | 1.7 | 3.5 | 0.00 | 0.00 | 0.00 | 74 | 1011.3 |
| 20260903050602 | 69 | 88 | 0.9 | 3.5 | 0.00 | 0.00 | 0.00 | 73 | 1011.2 |
| 20260903050005 | 69 | 71 | 1.7 | 3.5 | 0.00 | 0.00 | 0.00 | 72 | 1011.3 |
| 20260903045502 | 69 | 48 | 0.9 | 3.5 | 0.00 | 0.00 | 0.00 | 72 | 1011.4 |
| 20260903045002 | 69 | 42 | 0.9 | 3.5 | 0.00 | 0.00 | 0.00 | 71 | 1011.3 |
| 20260903044505 | 70 | 65 | 0.9 | 3.5 | 0.00 | 0.00 | 0.00 | 71 | 1011.4 |
| 20260903044001 | 70 | 32 | 0.9 | 3.5 | 0.00 | 0.00 | 0.00 | 70 | 1011.4 |
| 20260903043501 | 70 | 49 | 0.9 | 3.5 | 0.00 | 0.00 | 0.00 | 70 | 1011.5 |
| 20260903043001 | 70 | 59 | 0.9 | 3.5 | 0.00 | 0.00 | 0.00 | 69 | 1011.5 |
| 20260903042500 | 70 | 47 | 0.9 | 3.5 | 0.00 | 0.00 | 0.00 | 69 | 1011.5 |
| 20260903042002 | 71 | 44 | 0.9 | 3.5 | 0.00 | 0.00 | 0.00 | 68 | 1011.5 |
| 20260903041612 | 71 | 37 | 0.0 | 2.6 | 0.00 | 0.00 | 0.00 | 68 | 1011.4 |
| 20260903041100 | 71 | 38 | 0.0 | 3.5 | 0.00 | 0.00 | 0.00 | 67 | 1011.4 |
| 20260903040600 | 71 | 35 | 1.7 | 3.5 | 0.00 | 0.00 | 0.00 | 67 | 1011.5 |
| 20260903040120 | 72 | 47 | 0.9 | 4.3 | 0.00 | 0.00 | 0.00 | 66 | 1011.5 |
| 20260903035559 | 72 | 51 | 1.7 | 4.3 | 0.00 | 0.00 | 0.00 | 66 | 1011.5 |
| 20260903035059 | 72 | 10 | 0.9 | 2.6 | 0.00 | 0.00 | 0.00 | 66 | 1011.6 |
| 20260903034603 | 72 | 10 | 0.9 | 3.5 | 0.00 | 0.00 | 0.00 | 65 | 1011.7 |
| 20260903034102 | 72 | 43 | 0.9 | 3.5 | 0.00 | 0.00 | 0.00 | 65 | 1011.8 |
| 20260903033559 | 73 | 45 | 0.9 | 3.5 | 0.00 | 0.00 | 0.00 | 65 | 1011.8 |
| 20260903033059 | 73 | 96 | 1.7 | 4.3 | 0.00 | 0.00 | 0.00 | 63 | 1011.9 |
| 20260903032559 | 73 | 78 | 1.7 | 4.3 | 0.00 | 0.00 | 0.00 | 63 | 1011.8 |
| 20260903032058 | 73 | 103 | 1.7 | 5.2 | 0.00 | 0.00 | 0.00 | 62 | 1011.9 |
| 20260903031601 | 73 | 85 | 1.7 | 4.3 | 0.00 | 0.00 | 0.00 | 63 | 1011.8 |
| 20260903031101 | 73 | 99 | 1.7 | 4.3 | 0.00 | 0.00 | 0.00 | 62 | 1011.9 |
| 20260903030558 | 74 | 63 | 1.7 | 4.3 | 0.00 | 0.00 | 0.00 | 62 | 1011.9 |
| 20260903030100 | 74 | 56 | 1.7 | 4.3 | 0.00 | 0.00 | 0.00 | 62 | 1011.9 |
| 20260903025557 | 74 | 65 | 1.7 | 4.3 | 0.00 | 0.00 | 0.00 | 62 | 1011.9 |
| 20260903025057 | 74 | 42 | 1.7 | 3.5 | 0.00 | 0.00 | 0.00 | 62 | 1011.9 |
| 20260903024558 | 74 | 64 | 1.7 | 3.5 | 0.00 | 0.00 | 0.00 | 62 | 1011.8 |
| 20260903024057 | 74 | 96 | 1.7 | 3.5 | 0.00 | 0.00 | 0.00 | 62 | 1011.9 |
| 20260903023557 | 75 | 99 | 1.7 | 5.2 | 0.00 | 0.00 | 0.00 | 61 | 1011.9 |
| 20260903023101 | 75 | 58 | 1.7 | 5.2 | 0.00 | 0.00 | 0.00 | 61 | 1011.9 |
| 20260903022601 | 75 | 69 | 2.6 | 4.3 | 0.00 | 0.00 | 0.00 | 61 | 1011.8 |
| 20260903022057 | 75 | 67 | 1.7 | 5.2 | 0.00 | 0.00 | 0.00 | 61 | 1011.9 |
| 20260903021559 | 75 | 97 | 1.7 | 4.3 | 0.00 | 0.00 | 0.00 | 60 | 1011.9 |
| 20260903021057 | 76 | 72 | 1.7 | 4.3 | 0.00 | 0.00 | 0.00 | 60 | 1011.8 |
| 20260903020556 | 76 | 65 | 1.7 | 4.3 | 0.00 | 0.00 | 0.00 | 60 | 1011.7 |
| 20260903020056 | 76 | 101 | 1.7 | 4.3 | 0.00 | 0.00 | 0.00 | 59 | 1011.5 |
| 20260903015556 | 76 | 90 | 2.6 | 4.3 | 0.00 | 0.00 | 0.00 | 59 | 1011.5 |
| 20260903015056 | 77 | 82 | 2.6 | 4.3 | 0.00 | 0.00 | 0.00 | 58 | 1011.5 |
| 20260903014556 | 77 | 55 | 0.9 | 4.3 | 0.00 | 0.00 | 0.00 | 57 | 1011.6 |
| 20260903014056 | 77 | 67 | 1.7 | 3.5 | 0.00 | 0.00 | 0.00 | 57 | 1011.5 |
| 20260903013556 | 77 | 64 | 0.9 | 4.3 | 0.00 | 0.00 | 0.00 | 57 | 1011.5 |
| 20260903013056 | 77 | 80 | 0.9 | 4.3 | 0.00 | 0.00 | 0.00 | 56 | 1011.5 |
| 20260903012555 | 78 | 84 | 1.7 | 5.2 | 0.00 | 0.00 | 0.00 | 57 | 1011.5 |
| 20260903012057 | 78 | 86 | 2.6 | 5.2 | 0.00 | 0.00 | 0.00 | 57 | 1011.4 |
| 20260903011556 | 78 | 82 | 1.7 | 5.2 | 0.00 | 0.00 | 0.00 | 57 | 1011.3 |
| 20260903011058 | 78 | 92 | 1.7 | 5.2 | 0.00 | 0.00 | 0.00 | 56 | 1011.3 |
| 20260903010554 | 78 | 86 | 1.7 | 4.3 | 0.00 | 0.00 | 0.00 | 55 | 1011.3 |
| 20260903010054 | 79 | 55 | 2.6 | 4.3 | 0.00 | 0.00 | 0.00 | 55 | 1011.4 |
| 20260903005554 | 79 | 83 | 1.7 | 5.2 | 0.00 | 0.00 | 0.00 | 55 | 1011.3 |
| 20260903005057 | 79 | 65 | 1.7 | 5.2 | 0.00 | 0.00 | 0.00 | 55 | 1011.2 |
| 20260903004557 | 79 | 67 | 1.7 | 5.2 | 0.00 | 0.00 | 0.00 | 54 | 1011.2 |
| 20260903004054 | 79 | 99 | 1.7 | 3.5 | 0.00 | 0.00 | 0.00 | 54 | 1011.2 |
| 20260903003554 | 79 | 120 | 2.6 | 4.3 | 0.00 | 0.00 | 0.00 | 54 | 1011.2 |
| 20260903003053 | 79 | 87 | 1.7 | 6.1 | 0.00 | 0.00 | 0.00 | 53 | 1011.1 |
| 20260903002554 | 80 | 20 | 2.6 | 6.1 | 0.00 | 0.00 | 0.00 | 53 | 1011.1 |
| 20260903002054 | 80 | 64 | 1.7 | 7.0 | 0.00 | 0.00 | 0.00 | 53 | 1011.1 |
| 20260903001603 | 80 | 56 | 3.5 | 7.0 | 0.00 | 0.00 | 0.00 | 53 | 1011.1 |
| 20260903001053 | 80 | 105 | 3.5 | 7.0 | 0.00 | 0.00 | 0.00 | 53 | 1011.2 |
| 20260903000553 | 80 | 115 | 3.5 | 7.0 | 0.00 | 0.00 | 0.00 | 52 | 1011.1 |
| 20260903000052 | 81 | 64 | 2.6 | 7.0 | 0.00 | 0.00 | 0.00 | 52 | 1011.1 |
| 20260902235552 | 81 | 101 | 3.5 | 7.0 | 0.00 | 0.00 | 0.00 | 52 | 1011.1 |
| 20260902235051 | 81 | 95 | 4.3 | 6.1 | 0.00 | 0.00 | 0.00 | 51 | 1011.2 |
| 20260902234551 | 81 | 98 | 2.6 | 6.1 | 0.00 | 0.00 | 0.00 | 50 | 1011.2 |
| 20260902234053 | 81 | 100 | 3.5 | 7.8 | 0.00 | 0.00 | 0.00 | 50 | 1011.1 |
| 20260902233551 | 81 | 105 | 3.5 | 7.8 | 0.00 | 0.00 | 0.00 | 50 | 1011.2 |
| 20260902233051 | 82 | 94 | 2.6 | 7.8 | 0.00 | 0.00 | 0.00 | 50 | 1011.2 |
| 20260902232550 | 82 | 80 | 2.6 | 7.8 | 0.00 | 0.00 | 0.00 | 49 | 1011.2 |
| 20260902232050 | 82 | 105 | 2.6 | 7.0 | 0.00 | 0.00 | 0.00 | 48 | 1011.2 |
| 20260902231550 | 82 | 82 | 2.6 | 6.1 | 0.00 | 0.00 | 0.00 | 48 | 1011.2 |
| 20260902231051 | 82 | 71 | 0.9 | 5.2 | 0.00 | 0.00 | 0.00 | 48 | 1011.2 |
| 20260902230551 | 82 | 45 | 1.7 | 6.1 | 0.00 | 0.00 | 0.00 | 48 | 1011.1 |
| 20260902230051 | 82 | 100 | 3.5 | 6.1 | 0.00 | 0.00 | 0.00 | 48 | 1011.2 |
| 20260902225549 | 82 | 65 | 2.6 | 7.0 | 0.00 | 0.00 | 0.00 | 48 | 1011.2 |
| 20260902225049 | 82 | 73 | 1.7 | 6.1 | 0.00 | 0.00 | 0.00 | 48 | 1011.2 |
| 20260902224555 | 82 | 112 | 3.5 | 6.1 | 0.00 | 0.00 | 0.00 | 47 | 1011.1 |
| 20260902224049 | 82 | 60 | 3.5 | 6.1 | 0.00 | 0.00 | 0.00 | 47 | 1011.2 |
| 20260902223549 | 82 | 74 | 2.6 | 7.0 | 0.00 | 0.00 | 0.00 | 47 | 1011.1 |
| 20260902223050 | 82 | 93 | 1.7 | 5.2 | 0.00 | 0.00 | 0.00 | 46 | 1011.1 |
| 20260902222547 | 82 | 82 | 2.6 | 5.2 | 0.00 | 0.00 | 0.00 | 47 | 1011.1 |
| 20260902222048 | 82 | 90 | 3.5 | 6.1 | 0.00 | 0.00 | 0.00 | 47 | 1011.2 |
| 20260902221551 | 82 | 61 | 2.6 | 6.1 | 0.00 | 0.00 | 0.00 | 46 | 1011.3 |
| 20260902221045 | 82 | 65 | 2.6 | 7.0 | 0.00 | 0.00 | 0.00 | 47 | 1011.4 |
| 20260902220545 | 82 | 71 | 2.6 | 7.0 | 0.00 | 0.00 | 0.00 | 46 | 1011.4 |
| 20260902220053 | 82 | 92 | 3.5 | 7.0 | 0.00 | 0.00 | 0.00 | 47 | 1011.4 |
| 20260902215544 | 82 | 86 | 1.7 | 4.3 | 0.00 | 0.00 | 0.00 | 46 | 1011.4 |
| 20260902215144 | 82 | 44 | 1.7 | 6.1 | 0.00 | 0.00 | 0.00 | 45 | 1011.5 |
| 20260902214543 | 83 | 110 | 2.6 | 8.7 | 0.00 | 0.00 | 0.00 | 44 | 1011.5 |
| 20260902214043 | 83 | 15 | 3.5 | 8.7 | 0.00 | 0.00 | 0.00 | 45 | 1011.6 |
| 20260902213542 | 83 | 19 | 2.6 | 6.1 | 0.00 | 0.00 | 0.00 | 44 | 1011.7 |
| 20260902213047 | 83 | 86 | 2.6 | 7.0 | 0.00 | 0.00 | 0.00 | 44 | 1011.8 |
| 20260902212542 | 83 | 50 | 2.6 | 7.0 | 0.00 | 0.00 | 0.00 | 45 | 1011.8 |
| 20260902212042 | 83 | 9 | 1.7 | 4.3 | 0.00 | 0.00 | 0.00 | 44 | 1011.8 |
| 20260902211542 | 82 | 78 | 1.7 | 6.1 | 0.00 | 0.00 | 0.00 | 45 | 1011.8 |
| 20260902211040 | 83 | 44 | 2.6 | 9.6 | 0.00 | 0.00 | 0.00 | 44 | 1011.9 |
| 20260902210539 | 83 | 5 | 3.5 | 9.6 | 0.00 | 0.00 | 0.00 | 44 | 1011.9 |
| 20260902210039 | 83 | 35 | 1.7 | 5.2 | 0.00 | 0.00 | 0.00 | 46 | 1012.0 |
| 20260902205538 | 83 | 86 | 2.6 | 6.1 | 0.00 | 0.00 | 0.00 | 45 | 1012.1 |
| 20260902205038 | 83 | 55 | 3.5 | 6.1 | 0.00 | 0.00 | 0.00 | 45 | 1012.1 |
| 20260902204538 | 83 | 82 | 1.7 | 7.8 | 0.00 | 0.00 | 0.00 | 45 | 1012.1 |
| 20260902204038 | 83 | 84 | 3.5 | 7.8 | 0.00 | 0.00 | 0.00 | 44 | 1012.1 |
| 20260902203538 | 84 | 46 | 2.6 | 6.1 | 0.00 | 0.00 | 0.00 | 45 | 1012.0 |
| 20260902203037 | 84 | 141 | 0.9 | 4.3 | 0.00 | 0.00 | 0.00 | 45 | 1012.1 |
| 20260902202537 | 83 | 78 | 1.7 | 6.1 | 0.00 | 0.00 | 0.00 | 45 | 1012.1 |
| 20260902202039 | 83 | 70 | 2.6 | 6.1 | 0.00 | 0.00 | 0.00 | 45 | 1012.2 |
| 20260902201535 | 84 | 330 | 0.9 | 4.3 | 0.00 | 0.00 | 0.00 | 44 | 1012.3 |
| 20260902201036 | 83 | 69 | 1.7 | 7.0 | 0.00 | 0.00 | 0.00 | 45 | 1012.3 |
| 20260902200534 | 83 | 23 | 2.6 | 7.8 | 0.00 | 0.00 | 0.00 | 44 | 1012.3 |
| 20260902200033 | 83 | 53 | 3.5 | 7.8 | 0.00 | 0.00 | 0.00 | 45 | 1012.3 |
| 20260902195532 | 83 | 71 | 4.3 | 7.8 | 0.00 | 0.00 | 0.00 | 44 | 1012.3 |
| 20260902195030 | 83 | 30 | 0.9 | 7.0 | 0.00 | 0.00 | 0.00 | 44 | 1012.4 |
| 20260902194536 | 82 | 11 | 3.5 | 7.0 | 0.00 | 0.00 | 0.00 | 46 | 1012.5 |
| 20260902194029 | 82 | 28 | 1.7 | 5.2 | 0.00 | 0.00 | 0.00 | 46 | 1012.6 |
| 20260902193527 | 82 | 112 | 1.7 | 5.2 | 0.00 | 0.00 | 0.00 | 48 | 1012.7 |